www.pogodaiklimat.ru

ПОГОДА в Ла-Верне, CA

  • Прогноз погоды в Ла-Верне
  • Монитор погоды в Ла-Верне
  • Климат в Ла-Верне

АРХИВ ПОГОДЫ в Ла-Верне

Время (UTC), дата Ветер
(напр.,м/с)
 
Видим.   Явления Облачность Т
(С)
Тd
(С)
f
(%)
Тe
(С)
Тes
(С)
Комфортность

P
(гПа)

Po
(гПа)
Тmin
(С)
Tmax
(С)
R
(мм)
SD
(см)
17:47 23.05 СВ  16 км    10/10 600 м  +13.0  +9.0  77  +13  +13      978.9         
18:47 23.05   16 км    10/10 720 м  +13.0  +10.0  82  +13  +13      979.2         
19:47 23.05 В  16 км    10/10 660 м  +13.0  +8.0  72  +12  +12      979.6         
20:47 23.05   11 км    10/10 600 м  +13.0  +11.0  88  +12  +12      979.9         
21:47 23.05   2 км  -RABR  10/10 660 м  +12.0  +11.0  94  +11  +11      979.9         
22:47 23.05   16 км    10/10 750 м  +12.0  +11.0  94  +11  +11      979.9         
00:47 24.05 нст  16 км    8/8 960 м  +14.0  +11.0  82  +13  +14      979.2         
01:47 24.05   16 км    10/10 1290 м  +13.0  +11.0  88  +12  +12      979.6         
02:47 24.05   16 км    10/10 1290 м  +13.0  +10.0  82  +13  +13      979.9         
12:47 24.05   16 км    ясно  +9.0  +8.0  93  +8  +8      978.9         
13:47 24.05   16 км    ясно  +13.0  +10.0  82  +13  +14      978.9         
15:47 24.05   16 км    ясно  +16.0  +9.0  63  +16  +27      979.2         
16:47 24.05 З  16 км    ясно  +18.0  +8.0  52  +18  +29      978.9         
17:47 24.05 З  16 км    ясно  +19.0  +8.0  49  +20  +34  опасность
простуды 
  978.6         
18:47 24.05 ЮЗ  16 км    ясно  +21.0  +8.0  43  +22  +36  комфорт    978.3         
19:47 24.05 З  16 км    ясно  +22.0  +8.0  41  +23  +34  комфорт    977.6         
20:47 24.05 З  16 км    ясно  +23.0  +8.0  38  +24  +39  комфорт    976.9         
21:47 24.05 ЮЗ  16 км    ясно  +23.0  +9.0  41  +24  +31  комфорт    976.3         
22:47 24.05 З  16 км    ясно  +23.0  +9.0  41  +24  +28  комфорт    975.6         
23:47 24.05 З  16 км    ясно  +22.0  +9.0  43  +23  +26  комфорт    975.6         
00:47 25.05 З  16 км    ясно  +20.0  +9.0  49  +21  +23  комфорт    975.6         
12:47 25.05   16 км    ясно  +11.0  +9.0  87  +10  +10      976.0         
13:47 25.05 З  16 км    ясно  +13.0  +10.0  82  +13  +14      976.3         
14:47 25.05 З  16 км    ясно  +15.0  +10.0  72  +14  +18      976.6         
15:47 25.05 З  16 км    ясно  +16.0  +10.0  68  +15  +21      976.6         
16:47 25.05 ЮЗ  16 км    ясно  +17.0  +10.0  63  +17  +28      976.6         
17:47 25.05 З  16 км    ясно  +19.0  +11.0  60  +20  +31      976.6         
18:47 25.05 ЮЗ  16 км    5/5 990 м  +20.0  +11.0  56  +22  +29  комфорт    976.3         
21:47 25.05 З  16 км    ясно  +22.0  +11.0  50  +24  +30  комфорт    974.7         
22:47 25.05 З  16 км    ясно  +22.0  +11.0  50  +24  +28  комфорт    974.7         
23:47 25.05 ЮЗ  16 км    ясно  +19.0  +11.0  60  +19  +21      974.7         
00:47 26.05 ЮЗ  16 км    ясно  +17.0  +11.0  68  +16  +17      974.7         
01:47 26.05 ЮЗ  16 км    8/8 870 м  +16.0  +11.0  72  +15  +15      975.3         
02:47 26.05 ЮЗ  16 км    10/10 870 м  +14.0  +11.0  82  +12  +12      975.3         
12:47 26.05 Ю  13 км    10/10 570 м  +12.0  +10.0  88  +11  +11      975.6         
13:47 26.05   11 км    10/10 600 м  +12.0  +10.0  88  +11  +11      976.3         
14:47 26.05   11 км    10/10 600 м  +13.0  +9.0  77  +13  +13      976.6         
15:47 26.05 ЮЗ  16 км    10/10 540 м  +12.0  +10.0  88  +10  +10      976.9         
16:47 26.05 З  4 км  дымка  10/10 180 м  +12.0  +10.0  88  +10  +10      977.9         
17:47 26.05   8 км  дымка  10/10 510 м  +12.0  +11.0  94  +11  +11      978.3         
18:47 26.05 нст  16 км    10/10 600 м  +13.0  +9.0  77  +13  +13      978.3         
19:47 26.05 Ю  16 км    10/10 1020 м  +13.0  +8.0  72  +11  +11      978.6         
20:47 26.05 Ю  16 км    10/10 1200 м  +14.0  +8.0  67  +13  +13      978.6         
21:47 26.05 Ю  16 км    10/10 660 м  +13.0  +8.0  72  +11  +11      978.6         
22:47 26.05   8 км  дымка  10/10 630 м  +12.0  +8.0  76  +12  +12      978.3         
00:47 27.05   3 км  дымка  8/8 270 м  +11.0  +10.0  94  +10  +11      977.6         
01:47 27.05 Ю  3 км  -RABR  10/10 240 м  +11.0  +10.0  94  +8  +8      977.6         
02:47 27.05 З  16 км  слабый дождь  10/10 300 м  +11.0  +10.0  94  +9  +9      978.3         

 

Местоположение метеостанции Brackett Field Airport: широта 34.1000 долгота -117.7800 высота над уровнем моря 308 м.

В архиве по умолчанию представлена погода в Ла-Верне за последние 1-2 суток. Обновление информации о фактической погоде в базе происходит ежечасно! Архивные данные за месяц целиком и за предыдущие месяцы Вы можете получить, выбрав интересующий диапазон дат из раскрывающегося списка и нажав кнопку "Ввод!".

Внимание! Архив погоды МЕТАР в базе сайта хранится не более 60 дней. Нет смысла пытаться выбрать более раннюю дату.

Внимание! Время в таблицах - всемирное. Для получения местного времени необходимо прибавить поправку, которая в Ла-Верне равна -8 ч.

Ветер - указаны скорость ветра в м/с и направление, откуда дует ветер: С - северный, СВ - северо-восточный, В - восточный, ЮВ - юго-восточный, Ю - южный, ЮЗ - юго-западный, З - западный, СЗ - северо-западный.
Видимость - горизонтальная дальность видимости в метрах или километрах. При видимости от 1 до 10 км при отсутствии осадков обычно наблюдается дымка, при ухудшении видимости до 1 км и менее - туман. В сухую погоду видимость может ухудшаться дымом, пылью или мглою.
Атмосферные явления - указаны явления, наблюдавшиеся в указанный момент времени.
Облачность - указаны через наклонную черту верхняя и нижняя облачность в баллах и высота нижней границы облаков в метрах. Внимание: облачность, как и прочие метеорологические величины в США измеряются автоматическими метеостанциями. Указанные значения в баллах носят условный характер и показывают процент времени, в течение которого, в среднем, лазерный луч высотомера отражался от облаков обратно.
T - Температура воздуха - температура, измеренная на высоте 2 м над землей.
Td - Температура точки росы - температура, при понижении до которой содержащийся в воздухе водяной пар достигнет насыщения.
f - Относительная влажность воздуха - влажноcть воздуха, измеренная на высоте 2 м над землей.
Te - Эффективная температура - температура, которую ощущает одетый по сезону человек в тени. Характеристика душности погоды. При расчете учитывается влияние влажности воздуха и скорости ветра на теплоощущения человека.
Tes - Эффективная температура на солнце - температура, которую ощущает человек, с поправкой на солнечный нагрев. Характеристика знойности погоды. Зависит от высоты солнца над горизонтом, облачности и скорости ветра. Ночью, в пасмурную погоду, а также при ветре 12 м/с и более поправка равна нулю.
P - Атмосферное давление - приведенное к уровню моря атмосферное давление.
Po - Атмосферное давление - измеренное на уровне метеостанции атмосферное давление.
Tmin - Минимальная температура - минимум температуры воздуха на высоте 2 м над землей.
Tmax - Максимальная температура - максимум температуры воздуха на высоте 2 м над землей.
R - Количество осадков - Количество выпавших осадков за 3 или 6 часов, мм.
SD - Снежный покров - Высота снежного покрова, см.